Regional Weather Roundup
Issued by NWS Newport/Morehead, NC

Current Version | Previous Version | Text Only | Print | Product List | Glossary On
Versions: 1 2 3 4 5 6 7 8 9 10 11 12 13 14 15 16 17 18 19 20 21 22 23 24 25 26 27 28 29 30 31 32 33 34 35 36 37 38 39 40 41 42 43 44 45 46 47 48 49 50
000 ASUS42 KMHX 241614 RWRMHX WEATHER ROUNDUP FOR EASTERN NORTH CAROLINA NATIONAL WEATHER SERVICE NEWPORT/MOREHEAD CITY NC 1100 AM EST FRI NOV 24 2017 NOTE: "FAIR" INDICATES FEW OR NO CLOUDS BELOW 12,000 FEET WITH NO SIGNIFICANT WEATHER AND/OR OBSTRUCTIONS TO VISIBILITY NCZ015>017-031-032-045>047-102-103-241700- NORTH COAST CITY SKY/WX TMP DP RH WIND PRES REMARKS EDENTON SUNNY 52 39 62 NE5 30.06F ELIZABETH CITY SUNNY 54 42 64 NE10 30.05F KITTY HAWK MOSUNNY 52 38 58 NE6 30.03F MANTEO CLOUDY 53 39 60 E10 30.05F $$ NCZ045>047-081-094-103-104-241700- CENTRAL COAST CITY SKY/WX TMP DP RH WIND PRES REMARKS FRISCO CLOUDY 57 50 77 NE9 30.00F $$ NCZ095-097-098-100-101-241700- SOUTHERN COAST CITY SKY/WX TMP DP RH WIND PRES REMARKS BEAUFORT CLOUDY 51 44 77 N14G20 30.01F CEDAR ISLAND NOT AVBL JACKSONVILLE PTSUNNY 49 39 68 NE9 30.02F PINEY ISLAND N/A N/A N/A N/A N15G22 30.01F WILMINGTON PTSUNNY 49 33 54 N10 30.01F $$ NCZ011>013-027>030-043-044-078>080-089-090>093-098-241700- COASTAL PLAIN CITY SKY/WX TMP DP RH WIND PRES REMARKS AHOSKIE SUNNY 46 31 56 NE6 30.08F CLINTON SUNNY 48 32 55 E7 30.05F ELIZABETHTOWN NOT AVBL GOLDSBORO SUNNY 48 30 49 NE8 30.03F GREENVILLE SUNNY 48 34 57 NE9 30.07F HAVELOCK NOT AVBL KENANSVILLE SUNNY 46 30 53 NE6 30.05F KINSTON SUNNY 50 34 53 E8 30.04F NEW BERN MOSUNNY 46 40 79 NE9 30.04F RICHLANDS PTSUNNY 47 36 65 N10 30.03F ROCKY MOUNT SUNNY 48 30 49 NE9 30.06F WASHINGTON SUNNY 49 37 62 NE8 30.06S WHITEVILLE MOSUNNY 49 32 52 NE9 30.02F $$ AMZ130-135-150-152-154-156-158-170-250-252-270-ANZ085-086-088-633-658-670-241700- MARINE OBSERVATIONS STATION/POSITION TIME TEMP WIND PRES WAVE SWELL AIR SEA DIR/SP/G HT/PER HT/PER (UTC) (F) (DEG/KT/KT) (MB) (FT/S) (FT/S) CHESAPEAKE LIGHT NOT AVBL 64 E VA BEACH 1550 52 59 60/ 10/ 12 1017.7 5/10 5/10 DUCK 1548 51 56 50/ 12/ 15 1017.0 2 E DUCK 1600 59 N/A 5/10 2/11 OREGON INLET 1542 53 55 30/ 12/ 16 1016.9 13E OREGON INLT 1548 62 N/A 5/11 5/11 HATTERAS CG 1548 55 57 30/ 10/ 13 1015.7 DIAMOND BUOY 1600 62 30/ 19/ 25 1015.4 CAPE LOOKOUT 1600 10/ 16/ 21 1015.8 BEAUFORT LAB 1548 50 58 20/ 10/ 16 1016.1 30 SE NEW RVR IN 1508 55 67 50/ 16/ 21 1015.7 30 SE NEW RVR IN 1600 67 N/A 7/11 2/11 27 SE WRIGHTSVLE 1508 56 72 60/ 21/ 29 1015.4 5 SE WRIGHTSVLE 1508 49 63 30/ 16/ 19 1015.9 225 S CAPE HAT 1550 74 76 140/ 10/ 14 1009.4 9/ 8 8/ 8 41 SE CHARLESTON 1600 62 30/ 23/ 27 1013.3 $$

USA.gov is the U.S. government's official web portal to all federal, state and local government web resources and services.